This demonstration page uses our WeatherBlox Daily Observations layout. Learn more.

Left ArrowRight Arrow

36.17497, -115.13722

Hourly Observations for May 19, 2017

Temp ( °F °C ) Dew Point ( °F °C ) Humidity (%) Winds ( mph kmh ) Pressure ( in mb ) Visibility ( mi km ) Precip ( " mm )
12:53 am 00:53 Clear 57 13.9 32 0 39 39 NW 5 7 30.05 1018 10 16 0.00 0.00
1:53 am 01:53 Clear 55 12.8 29 -1.7 37 37 NW 6 9 30.04 1017 10 16 0.00 0.00
2:53 am 02:53 Clear 57 13.9 23 -5 27 27 NW 7 11 30.03 1017 10 16 0.00 0.00
3:53 am 03:53 Clear 53 11.7 28 -2.2 38 38 SE 5 7 30.04 1017 10 16 0.00 0.00
4:53 am 04:53 Clear 53 11.7 28 -2.2 38 38 NE 3 6 30.06 1018 10 16 0.00 0.00
5:53 am 05:53 Sunny 55 12.8 22 -5.6 28 28 NNW 5 7 30.06 1018 10 16 0.00 0.00
6:53 am 06:53 Sunny 57 13.9 21 -6.1 25 25 Calm 30.08 1019 10 16 0.00 0.00
7:53 am 07:53 Sunny 60 15.6 22 -5.6 23 23 Calm 30.08 1019 10 16 0.00 0.00
8:53 am 08:53 Sunny 63 17.2 27 -2.8 26 26 SE 7 11 30.08 1019 10 16 0.00 0.00
9:53 am 09:53 Sunny 66 18.9 25 -3.9 21 21 VRB 6 9 30.07 1018 10 16 0.00 0.00
10:53 am 10:53 Sunny 70 21.1 23 -5 17 17 SE 7 11 30.06 1018 10 16 0.00 0.00
11:53 am 11:53 Sunny 71 21.7 23 -5 16 16 VRB 5 7 30.04 1017 10 16 0.00 0.00
12:53 pm 12:53 Sunny 75 23.9 23 -5 14 14 ENE 8 13 30.01 1016 10 16 0.00 0.00
1:53 pm 13:53 Sunny 76 24.4 22 -5.6 13 13 VRB 5 7 29.99 1016 10 16 0.00 0.00
2:53 pm 14:53 Sunny 76 24.4 23 -5 14 14 VRB 5 7 29.97 1015 10 16 0.00 0.00
3:53 pm 15:53 Sunny 77 25 23 -5 13 13 Calm 29.96 1015 10 16 0.00 0.00
4:53 pm 16:53 Sunny 78 25.6 22 -5.6 12 12 SSW 5 7 29.94 1014 10 16 0.00 0.00
5:53 pm 17:53 Sunny 79 26.1 23 -5 12 12 S 6 9 29.93 1013 10 16 0.00 0.00
6:53 pm 18:53 Sunny 78 25.6 23 -5 13 13 SSE 9 15 29.92 1013 10 16 0.00 0.00
7:53 pm 19:53 Clear 76 24.4 23 -5 14 14 SSE 7 11 29.93 1014 10 16 0.00 0.00
8:53 pm 20:53 Clear 74 23.3 23 -5 15 15 ESE 5 7 29.95 1014 10 16 0.00 0.00
9:53 pm 21:53 Clear 72 22.2 25 -3.9 17 17 Calm 29.97 1015 10 16 0.00 0.00
10:53 pm 22:53 Clear 70 21.1 27 -2.8 20 20 Calm 29.97 1015 10 16 0.00 0.00
11:53 pm 23:53 Clear 69 20.6 29 -1.7 22 22 Calm 29.98 1015 10 16 0.00 0.00

Powered by AerisWeather